This demonstration page uses our WeatherBlox Daily Observations layout. Learn more.

Left ArrowRight Arrow

44.8408, -93.29828

Hourly Observations for May 9, 2021

Temp ( °F °C ) Dew Point ( °F °C ) Humidity (%) Winds ( mph kmh ) Pressure ( in mb ) Visibility ( mi km ) Precip ( " mm )
12:53 am 00:53 Cloudy 49 9.4 32 0 52 52 NW 3 6 30.02 1017 10 16 0.00 0.00
1:53 am 01:53 Cloudy 48 8.9 31 -0.6 52 52 W 6 9 30.02 1017 10 16 0.00 0.00
2:53 am 02:53 Cloudy 46 7.8 33 0.6 61 61 SSW 5 7 30.00 1016 10 16 0.00 0.00
3:53 am 03:53 Mostly Cloudy 44 6.7 33 0.6 65 65 SW 3 6 29.98 1015 10 16 0.00 0.00
4:53 am 04:53 Partly Cloudy 42 5.6 35 1.7 76 76 WSW 3 6 29.99 1016 10 16 0.00 0.00
5:53 am 05:53 Mostly Sunny 41 5 34 1.1 76 76 W 3 6 29.99 1016 10 16 0.00 0.00
6:53 am 06:53 Mostly Sunny 42 5.6 34 1.1 73 73 N 5 7 30.01 1016 10 16 0.00 0.00
7:53 am 07:53 Mostly Sunny 43 6.1 33 0.6 68 68 N 8 13 30.02 1017 10 16 0.00 0.00
8:53 am 08:53 Mostly Sunny 47 8.3 35 1.7 63 63 N 8 13 30.02 1017 10 16 0.00 0.00
9:53 am 09:53 Partly Cloudy 49 9.4 35 1.7 59 59 N 12 19 30.03 1017 10 16 0.00 0.00
10:53 am 10:53 Partly Cloudy 53 11.7 34 1.1 48 48 NNW 12 19 30.03 1017 10 16 0.00 0.00
11:53 am 11:53 Mostly Cloudy 57 13.9 33 0.6 41 41 N 9 15 30.02 1017 10 16 0.00 0.00
12:53 pm 12:53 Mostly Cloudy 60 15.6 32 0 35 35 NNW 8 13 30.02 1017 10 16 0.00 0.00
1:53 pm 13:53 Mostly Cloudy 59 15 29 -1.7 32 32 NNW 12 19 30.01 1016 10 16 0.00 0.00
2:53 pm 14:53 Partly Cloudy 61 16.1 29 -1.7 30 30 WNW 6 9 30.01 1016 10 16 0.00 0.00
4:53 pm 16:53 Partly Cloudy 61 16.1 25 -3.9 25 25 VRB 6 9 30.01 1016 10 16 0.00 0.00
5:53 pm 17:53 Partly Cloudy 60 15.6 25 -3.9 26 26 NE 9 15 30.02 1017 10 16 0.00 0.00
6:53 pm 18:53 Partly Cloudy 59 15 24 -4.4 26 26 NNE 12 19 30.02 1017 10 16 0.00 0.00
7:53 pm 19:53 Partly Cloudy 56 13.3 26 -3.3 32 32 NE 14 22 30.04 1017 10 16 0.00 0.00
8:53 pm 20:53 Partly Cloudy 54 12.2 24 -4.4 31 31 NNE 8 13 30.06 1018 10 16 0.00 0.00
9:53 pm 21:53 Partly Cloudy 53 11.7 24 -4.4 32 32 ENE 12 19 30.08 1019 10 16 0.00 0.00
10:53 pm 22:53 Partly Cloudy 50 10 25 -3.9 38 38 ENE 12 19 30.09 1019 10 16 0.00 0.00
11:53 pm 23:53 Partly Cloudy 48 8.9 26 -3.3 42 42 E 9 15 30.11 1020 10 16 0.00 0.00

Powered by AerisWeather